• In Uzbekistan
  • List of Countries
  • For 7 days
  • Water Temperature
  • Weather Map
  • Weather Widgets
  • user-avatar
    Login

    Hourly Weather Mochudi

    Today, 9 December, Monday

    Time Temperature Precipitation Wind Pressure Humidity
    00:00 +22°C° 1.3 mm 3 mps 675 mmHg 84%
    01:00 +22°C° 1.3 mm 3 mps 675 mmHg 86%
    02:00 +22°C° 0 mm 3 mps 675 mmHg 85%
    03:00 +21°C° 0.1 mm 3 mps 675 mmHg 86%
    04:00 +21°C° 0.1 mm 3 mps 675 mmHg 88%
    05:00 +21°C° 0.1 mm 3 mps 675 mmHg 89%
    06:00 +22°C° 0 mm 4 mps 676 mmHg 85%
    07:00 +22°C° 0 mm 5 mps 676 mmHg 81%
    08:00 +23°C° 0 mm 5 mps 677 mmHg 76%
    09:00 +25°C° 0.1 mm 5 mps 677 mmHg 74%
    10:00 +25°C° 0.1 mm 5 mps 677 mmHg 72%
    11:00 +26°C° 0.1 mm 5 mps 677 mmHg 70%
    12:00 +26°C° 1.1 mm 5 mps 677 mmHg 68%
    13:00 +27°C° 1.1 mm 5 mps 677 mmHg 66%
    14:00 +28°C° 0 mm 5 mps 676 mmHg 63%
    15:00 +27°C° 2.3 mm 6 mps 676 mmHg 67%
    16:00 +27°C° 2.3 mm 6 mps 675 mmHg 71%
    17:00 +26°C° 2.3 mm 6 mps 675 mmHg 75%
    18:00 +23°C° 3.8 mm 5 mps 675 mmHg 78%
    19:00 +21°C° 3.8 mm 5 mps 676 mmHg 82%
    20:00 +20°C° 3.8 mm 4 mps 676 mmHg 85%
    21:00 +20°C° 1 mm 3 mps 677 mmHg 87%
    22:00 +20°C° 1 mm 2 mps 677 mmHg 88%
    23:00 +21°C° 1 mm 1 mps 677 mmHg 90%

    Tomorrow, 10 December, Tuesday

    Time Temperature Precipitation Wind Pressure Humidity
    00:00 +20°C° 0.2 mm 2 mps 677 mmHg 90%
    01:00 +20°C° 0.2 mm 2 mps 677 mmHg 90%
    02:00 +20°C° 0.2 mm 3 mps 677 mmHg 90%
    03:00 +20°C° 0.4 mm 3 mps 677 mmHg 91%
    04:00 +20°C° 0.4 mm 3 mps 677 mmHg 91%
    05:00 +20°C° 0.4 mm 3 mps 677 mmHg 91%
    06:00 +21°C° 0.5 mm 4 mps 677 mmHg 89%
    07:00 +21°C° 0.5 mm 4 mps 678 mmHg 87%
    08:00 +22°C° 0.5 mm 5 mps 678 mmHg 84%
    09:00 +23°C° 0.1 mm 5 mps 678 mmHg 79%
    10:00 +25°C° 0.1 mm 5 mps 679 mmHg 75%
    11:00 +26°C° 0.1 mm 5 mps 679 mmHg 70%
    12:00 +26°C° 0.8 mm 5 mps 678 mmHg 68%
    13:00 +26°C° 0.8 mm 5 mps 678 mmHg 66%
    14:00 +27°C° 0.8 mm 4 mps 677 mmHg 65%
    15:00 +27°C° 1 mm 4 mps 677 mmHg 66%
    16:00 +26°C° 1 mm 4 mps 677 mmHg 67%
    17:00 +26°C° 1 mm 4 mps 676 mmHg 68%
    18:00 +25°C° 0.7 mm 4 mps 677 mmHg 73%
    19:00 +23°C° 0.7 mm 4 mps 677 mmHg 78%
    20:00 +22°C° 0.7 mm 4 mps 677 mmHg 83%
    21:00 +21°C° 0.1 mm 4 mps 677 mmHg 85%
    22:00 +21°C° 0.1 mm 4 mps 678 mmHg 87%
    23:00 +20°C° 0.1 mm 4 mps 678 mmHg 90%

    Day after tomorrow, 11 December, Wednesday

    Time Temperature Precipitation Wind Pressure Humidity
    00:00 +20°C° 0 mm 3 mps 678 mmHg 91%
    01:00 +20°C° 0 mm 3 mps 677 mmHg 92%
    02:00 +19°C° 0 mm 2 mps 677 mmHg 94%
    03:00 +19°C° 0 mm 2 mps 677 mmHg 92%
    04:00 +19°C° 0 mm 2 mps 677 mmHg 91%
    05:00 +19°C° 0 mm 2 mps 677 mmHg 90%
    06:00 +20°C° 0 mm 2 mps 677 mmHg 88%
    07:00 +20°C° 0 mm 2 mps 678 mmHg 86%
    08:00 +20°C° 0 mm 2 mps 678 mmHg 83%
    09:00 +23°C° 0 mm 2 mps 678 mmHg 78%
    10:00 +24°C° 0 mm 2 mps 678 mmHg 72%
    11:00 +25°C° 0 mm 1 mps 679 mmHg 67%
    12:00 +27°C° 0 mm 1 mps 678 mmHg 57%
    13:00 +30°C° 0 mm 1 mps 678 mmHg 48%
    14:00 +32°C° 0 mm 1 mps 678 mmHg 39%
    15:00 +32°C° 0 mm 1 mps 678 mmHg 37%
    16:00 +31°C° 0 mm 2 mps 678 mmHg 35%
    17:00 +31°C° 0 mm 2 mps 677 mmHg 33%
    18:00 +30°C° 0 mm 2 mps 677 mmHg 37%
    19:00 +28°C° 0 mm 2 mps 677 mmHg 41%
    20:00 +27°C° 0 mm 1 mps 677 mmHg 45%
    21:00 +26°C° 0 mm 1 mps 677 mmHg 47%
    22:00 +26°C° 0 mm 2 mps 677 mmHg 48%
    23:00 +25°C° 0 mm 2 mps 678 mmHg 49%

    12 December, Thursday

    Time Temperature Precipitation Wind Pressure Humidity
    00:00 +25°C° 0 mm 2 mps 677 mmHg 51%
    01:00 +24°C° 0 mm 2 mps 677 mmHg 53%
    02:00 +24°C° 0 mm 2 mps 677 mmHg 54%
    03:00 +23°C° 0 mm 2 mps 677 mmHg 55%
    04:00 +23°C° 0 mm 1 mps 677 mmHg 55%
    05:00 +23°C° 0 mm 1 mps 677 mmHg 56%
    06:00 +24°C° 0 mm 1 mps 677 mmHg 52%
    07:00 +26°C° 0 mm 1 mps 678 mmHg 48%
    08:00 +27°C° 0 mm 1 mps 679 mmHg 45%
    09:00 +29°C° 0 mm 1 mps 679 mmHg 40%
    10:00 +31°C° 0 mm 1 mps 679 mmHg 34%
    11:00 +34°C° 0 mm 2 mps 679 mmHg 29%
    12:00 +35°C° 0 mm 2 mps 679 mmHg 26%
    13:00 +35°C° 0 mm 1 mps 679 mmHg 23%
    14:00 +36°C° 0 mm 1 mps 678 mmHg 21%
    15:00 +35°C° 0 mm 1 mps 678 mmHg 22%
    16:00 +35°C° 0 mm 1 mps 678 mmHg 24%
    17:00 +34°C° 0 mm 1 mps 677 mmHg 26%
    18:00 +32°C° 0 mm 1 mps 677 mmHg 28%
    19:00 +31°C° 0 mm 1 mps 677 mmHg 31%
    20:00 +29°C° 0 mm 1 mps 677 mmHg 33%
    21:00 +29°C° 0 mm 1 mps 677 mmHg 35%
    22:00 +28°C° 0 mm 1 mps 678 mmHg 37%
    23:00 +27°C° 0 mm 2 mps 678 mmHg 38%

    13 December, Friday

    Time Temperature Precipitation Wind Pressure Humidity
    00:00 +27°C° 0 mm 2 mps 678 mmHg 42%
    01:00 +26°C° 0 mm 3 mps 678 mmHg 45%
    02:00 +25°C° 0 mm 4 mps 678 mmHg 49%
    03:00 +25°C° 0 mm 4 mps 678 mmHg 58%
    04:00 +23°C° 0 mm 4 mps 678 mmHg 66%
    05:00 +23°C° 0 mm 4 mps 679 mmHg 75%
    06:00 +23°C° 0 mm 5 mps 679 mmHg 71%
    07:00 +24°C° 0 mm 6 mps 680 mmHg 68%
    08:00 +26°C° 0 mm 6 mps 680 mmHg 64%
    09:00 +28°C° 0 mm 6 mps 680 mmHg 59%
    10:00 +30°C° 0 mm 6 mps 680 mmHg 54%
    11:00 +32°C° 0 mm 5 mps 681 mmHg 48%
    12:00 +34°C° 0 mm 5 mps 680 mmHg 43%
    13:00 +35°C° 0 mm 4 mps 680 mmHg 37%
    14:00 +36°C° 0 mm 3 mps 679 mmHg 31%
    15:00 +35°C° 0.1 mm 4 mps 679 mmHg 35%
    16:00 +33°C° 0.1 mm 5 mps 678 mmHg 39%
    17:00 +30°C° 0.1 mm 6 mps 677 mmHg 43%
    18:00 +29°C° 0.1 mm 5 mps 677 mmHg 45%
    19:00 +28°C° 0.1 mm 4 mps 677 mmHg 48%
    20:00 +27°C° 0.1 mm 3 mps 678 mmHg 50%
    21:00 +27°C° 0 mm 3 mps 678 mmHg 52%
    22:00 +27°C° 0 mm 3 mps 678 mmHg 54%
    23:00 +26°C° 0 mm 3 mps 678 mmHg 56%

    14 December, Saturday

    Time Temperature Precipitation Wind Pressure Humidity
    00:00 +27°C° 0 mm 3 mps 678 mmHg 54%
    01:00 +27°C° 0 mm 3 mps 678 mmHg 53%
    02:00 +27°C° 0 mm 4 mps 678 mmHg 52%
    03:00 +26°C° 0 mm 3 mps 678 mmHg 56%
    04:00 +25°C° 0 mm 3 mps 678 mmHg 60%
    05:00 +24°C° 0 mm 2 mps 678 mmHg 64%
    06:00 +25°C° 0 mm 3 mps 679 mmHg 63%
    07:00 +26°C° 0 mm 4 mps 679 mmHg 62%
    08:00 +27°C° 0 mm 5 mps 680 mmHg 61%
    09:00 +29°C° 0 mm 5 mps 680 mmHg 54%
    10:00 +32°C° 0 mm 5 mps 680 mmHg 47%
    11:00 +34°C° 0 mm 5 mps 680 mmHg 40%
    12:00 +36°C° 0 mm 4 mps 680 mmHg 34%
    13:00 +37°C° 0 mm 4 mps 679 mmHg 29%
    14:00 +38°C° 0 mm 3 mps 679 mmHg 24%
    15:00 +37°C° 0 mm 3 mps 678 mmHg 27%
    16:00 +35°C° 0 mm 3 mps 677 mmHg 29%
    17:00 +34°C° 0 mm 2 mps 677 mmHg 32%
    18:00 +32°C° 0 mm 2 mps 677 mmHg 34%
    19:00 +31°C° 0 mm 2 mps 677 mmHg 37%
    20:00 +30°C° 0 mm 2 mps 677 mmHg 39%
    21:00 +29°C° 0 mm 2 mps 677 mmHg 39%
    22:00 +29°C° 0 mm 2 mps 677 mmHg 40%
    23:00 +28°C° 0 mm 2 mps 678 mmHg 40%
    Show more